This is the latest recevied weather packets stored in our database for station/object SA7NOA-14. If no packets are shown the sender has not sent any weather packets the latest 10 day(s).
| Time | Temp. | Humidity | Pressure | Rain* | Wind** | Luminosity | Snow |
|---|---|---|---|---|---|---|---|
| 1788098403 | 21.11° C | 90% | 1004.2 hPa | 1.78 mm | - | - | - |
| 1788096601 | 18.33° C | 87% | 1004.2 hPa | 1.78 mm | - | - | - |
| 1788095705 | 18.89° C | 87% | 1004.2 hPa | 1.78 mm | - | - | - |
| 1788093001 | 18.33° C | 84% | 1004.2 hPa | 2.03 mm | - | - | - |
| 1788092100 | 18.33° C | 84% | 1004.2 hPa | 2.03 mm | - | - | - |
| 1788091205 | 17.78° C | 84% | 1004.2 hPa | 2.03 mm | - | - | - |
| 1788089403 | 18.33° C | 76% | 1004.3 hPa | 2.03 mm | - | - | - |
| 1788088502 | 18.33° C | 76% | 1004.3 hPa | 2.03 mm | - | - | - |
| 1788087601 | 18.33° C | 76% | 1004.3 hPa | 2.03 mm | - | - | - |
| 1788086705 | 18.33° C | 76% | 1004.3 hPa | 2.03 mm | - | - | - |
| 1788085804 | 18.33° C | 76% | 1004.4 hPa | 1.78 mm | - | - | - |
| 1788084903 | 19.44° C | 76% | 1004.4 hPa | 1.78 mm | - | - | - |
| 1788084002 | 19.44° C | 76% | 1004.4 hPa | 1.78 mm | - | - | - |
| 1788083101 | 18.33° C | 76% | 1004.4 hPa | 1.78 mm | - | - | - |
| 1788082205 | 17.78° C | 80% | 1004.9 hPa | 1.78 mm | - | - | - |
| 1788081304 | 17.78° C | 80% | 1004.9 hPa | 1.78 mm | - | - | - |
| 1788080403 | 17.78° C | 80% | 1004.9 hPa | 1.52 mm | - | - | - |
| 1788079502 | 17.78° C | 80% | 1004.9 hPa | 1.52 mm | - | - | - |
| 1788078601 | 16.67° C | 81% | 1005.4 hPa | 1.27 mm | - | - | - |
| 1788077705 | 17.22° C | 81% | 1005.4 hPa | 1.27 mm | - | - | - |
| 1788076804 | 16.11° C | 81% | 1005.4 hPa | 1.27 mm | - | - | - |
| 1788075903 | 15.56° C | 81% | 1005.4 hPa | 1.27 mm | - | - | - |
| 1788075002 | 15.56° C | 88% | 1006 hPa | 1.27 mm | - | - | - |
| 1788074101 | 15.56° C | 88% | 1006 hPa | 1.27 mm | - | - | - |
| 1788073201 | 15° C | 88% | 1006 hPa | 1.27 mm | - | - | - |
* Rain latest 24 hours (hover to see other rain measurements)
** Current wind speed in m/s (hover to see current wind gust speed)